Powrót do katalogu

FENGYUN 1C DEB

AktywnyPO
NORAD 31498·DEBRIS·🇨🇳 China

Wystrzelony May 10, 1999 z Taiyuan Satellite Launch Center

Loading…

Następne Przeloty (najbliższe 24 godziny)

TLE

ŚwieżeSource: Space-Track

Epoka: Sep 14, 2026, 07:10 UTC

1 31498U 99025BWM 26257.29927435  .00001326  00000-0  11355-2 0  9992
2 31498  98.4991 204.8504 0217805 119.5409 242.7652 13.78117292965281

Śledź FENGYUN 1C DEB w czasie rzeczywistym z AllMySat

Download on the App Store